Weather History for KLSV - February, 2013

Change the Weather History Date:

Sunday, February 24, 2013

  Actual Average Record
Temperature  
Mean Temperature 46 °F -  
Max Temperature 56 °F 60 °F 84 °F (2004)
Min Temperature 37 °F 40 °F 35 °F (1999)
Degree Days  
Heating Degree Days 18    
Moisture  
Dew Point 7 °F    
Average Humidity 21    
Maximum Humidity 29    
Minimum Humidity 12    
Precipitation  
Precipitation 0.00 in - - ()
Sea Level Pressure  
Sea Level Pressure 30.15 in    
Wind  
Wind Speed 4 mph (NNE)    
Max Wind Speed 17 mph    
Max Gust Speed 29 mph    
Visibility 10 miles    
Events      
Averages and records for this station are not official NWS values.
T = Trace of Precipitation, MM = Missing Value Source: NWS Daily Summary

Daily Weather History Graph

Daily Weather History Graph

Search for Another Location

Airport or City:

Trip Planner

Search our weather history database for the weather conditions in past years. The results will help you decide how hot, cold, wet, or windy it might be!

Date:

Astronomy

Feb. 24, 2013 Rise Set
Actual Time 6:16 AM PST 5:30 PM PST
Civil Twilight 5:50 AM PST 5:56 PM PST
Nautical Twilight 5:20 AM PST 6:26 PM PST
Astronomical Twilight 4:51 AM PST 6:56 PM PST
Moon 4:45 PM PST (2/24) 5:15 AM PST (2/24)
Length of Visible Light 12h 05m
Length of Day
11h 13m
Waxing Gibbous, 99% of the Moon is Illuminated
Feb 24
Waxing Gibbous
Feb 25
Full
Mar 4
Last Quarter
Mar 11
New
Mar 19
First Quarter

Hourly Weather History & Observations

Time (PST) Temp. Windchill Dew Point Humidity Pressure Visibility Wind Dir Wind Speed Gust Speed Precip Events Conditions
12:58 AM 41.4 °F - 6.3 °F 24% 30.11 in 10.0 mi Calm Calm - N/A   Clear
1:58 AM 41.9 °F - 7.9 °F 25% 30.10 in 10.0 mi Calm Calm - N/A   Clear
2:58 AM 39.4 °F - 7.5 °F 27% 30.09 in 10.0 mi Calm Calm - N/A   Clear
3:58 AM 38.5 °F - 7.3 °F 28% 30.09 in 10.0 mi Calm Calm - N/A   Clear
4:58 AM 38.3 °F - 7.3 °F 28% 30.12 in 10.0 mi Calm Calm - N/A   Clear
5:58 AM 37.6 °F 31.0 °F 8.1 °F 29% 30.13 in 10.0 mi NNW 9.2 mph - N/A   Clear
6:58 AM 41.2 °F 39.2 °F 7.3 °F 25% 30.14 in 10.0 mi NNW 3.5 mph - N/A   Clear
7:58 AM 45.9 °F 43.6 °F 8.1 °F 21% 30.17 in 10.0 mi North 4.6 mph - N/A   Clear
8:58 AM 47.7 °F - 8.6 °F 21% 30.18 in 10.0 mi North 4.6 mph - N/A   Clear
9:58 AM 49.5 °F - 8.8 °F 19% 30.19 in 10.0 mi North 5.8 mph 24.2 mph N/A   Clear
10:58 AM 51.3 °F - 6.6 °F 16% 30.18 in 10.0 mi North 9.2 mph - N/A   Clear
11:58 AM 53.1 °F - 5.5 °F 15% 30.15 in 10.0 mi NNE 13.8 mph 24.2 mph N/A   Clear
12:58 PM 54.1 °F - 5.7 °F 14% 30.12 in 10.0 mi NNE 17.3 mph 27.6 mph N/A   Clear
1:58 PM 54.9 °F - 5.0 °F 13% 30.12 in 10.0 mi NNE 2.3 mph 28.8 mph N/A   Clear
2:58 PM 56.1 °F - 4.3 °F 12% 30.12 in 10.0 mi NNE 6.9 mph 24.2 mph N/A   Clear
3:58 PM 56.3 °F - 3.0 °F 12% 30.12 in 10.0 mi NE 16.1 mph 27.6 mph N/A   Clear
4:58 PM 55.6 °F - 3.9 °F 12% 30.13 in 10.0 mi NNE 4.6 mph 25.3 mph N/A   Clear
5:58 PM 53.2 °F - 3.7 °F 13% 30.14 in 10.0 mi NNE 10.4 mph 21.9 mph N/A   Clear
6:58 PM 51.6 °F - 3.9 °F 14% 30.17 in 10.0 mi Calm Calm - N/A   Clear
7:58 PM 47.1 °F - 10.2 °F 22% 30.19 in 10.0 mi NE 9.2 mph - N/A   Clear
8:58 PM 45.1 °F 39.9 °F 11.5 °F 26% 30.21 in 10.0 mi ENE 10.4 mph - N/A   Clear
9:58 PM 43.3 °F 38.6 °F 11.7 °F 28% 30.23 in 10.0 mi ENE 8.1 mph - N/A   Clear
10:58 PM 44.1 °F 39.5 °F 12.0 °F 27% 30.23 in 10.0 mi North 8.1 mph - N/A   Clear
11:58 PM 44.2 °F 42.7 °F 10.6 °F 25% 30.24 in 10.0 mi Variable 3.5 mph - N/A   Clear